This demonstration page uses our WeatherBlox Daily Observations layout. Learn more.

Left ArrowRight Arrow

44.8408, -93.29828

Hourly Observations for July 20, 2021

Temp ( °F °C ) Dew Point ( °F °C ) Humidity (%) Winds ( mph kmh ) Pressure ( in mb ) Visibility ( mi km ) Precip ( " mm )
12:53 am 00:53 Mostly Clear 77 25 66 18.9 69 69 W 6 9 30.11 1020 10 16 0.00 0.00
1:53 am 01:53 Mostly Clear 74 23.3 66 18.9 76 76 Calm 30.09 1019 9 14 0.00 0.00
2:53 am 02:53 Mostly Clear 74 23.3 66 18.9 76 76 WSW 3 6 30.08 1019 9 14 0.00 0.00
3:53 am 03:53 Mostly Clear 72 22.2 66 18.9 82 82 SW 5 7 30.08 1019 8 13 0.00 0.00
4:53 am 04:53 Mostly Clear 72 22.2 66 18.9 82 82 WSW 3 6 30.08 1019 8 13 0.00 0.00
5:53 am 05:53 Partly Cloudy 71 21.7 66 18.9 84 84 WSW 5 7 30.09 1019 7 11 0.00 0.00
6:53 am 06:53 Mostly Sunny 70 21.1 66 18.9 87 87 WSW 5 7 30.11 1020 7 11 0.00 0.00
7:53 am 07:53 Mostly Cloudy 72 22.2 66 18.9 82 82 W 6 9 30.12 1020 7 11 0.00 0.00
8:53 am 08:53 Mostly Cloudy 74 23.3 66 18.9 76 76 NNW 6 9 30.12 1020 8 13 0.00 0.00
9:53 am 09:53 Partly Cloudy 77 25 66 18.9 69 69 NNW 6 9 30.11 1020 8 13 0.00 0.00
10:53 am 10:53 Partly Cloudy 82 27.8 66 18.9 58 58 NNW 10 17 30.11 1020 8 13 0.00 0.00
11:53 am 11:53 Mostly Sunny 84 28.9 65 18.3 53 53 N 6 9 30.10 1019 8 13 0.00 0.00
12:53 pm 12:53 Mostly Sunny 86 30 64 17.8 48 48 NNE 8 13 30.09 1019 8 13 0.00 0.00
1:53 pm 13:53 Partly Cloudy 88 31.1 65 18.3 46 46 N 5 7 30.08 1019 7 11 0.00 0.00
2:53 pm 14:53 Partly Cloudy 89 31.7 66 18.9 47 47 NW 7 11 30.06 1018 7 11 0.00 0.00
3:53 pm 15:53 Mostly Cloudy with Haze 88 31.1 65 18.3 46 46 N 7 11 30.05 1018 6 10 0.00 0.00
4:53 pm 16:53 Mostly Cloudy with Haze 89 31.7 65 18.3 45 45 N 8 13 30.05 1018 6 10 0.00 0.00
5:53 pm 17:53 Mostly Cloudy with Haze 86 30 67 19.4 53 53 NE 13 20 30.05 1018 6 10 0.00 0.00
6:53 pm 18:53 Mostly Cloudy with Haze 85 29.4 65 18.3 51 51 NNE 12 19 30.04 1017 4 6 0.00 0.00
7:53 pm 19:53 Mostly Cloudy with Smoke 84 28.9 64 17.8 51 51 NNE 6 9 30.05 1018 4 6 0.00 0.00
8:53 pm 20:53 Mostly Cloudy with Smoke 81 27.2 67 19.4 62 62 ENE 13 20 30.06 1018 4 6 0.00 0.00
9:53 pm 21:53 Mostly Cloudy with Smoke 78 25.6 66 18.9 67 67 ENE 15 24 30.09 1019 4 6 0.00 0.00
10:53 pm 22:53 Mostly Cloudy with Smoke 75 23.9 65 18.3 71 71 ENE 10 17 30.09 1019 3 5 0.00 0.00
11:53 pm 23:53 Mostly Cloudy with Smoke 72 22.2 64 17.8 76 76 E 6 9 30.10 1019 3 5 0.00 0.00

Powered by AerisWeather